Regional Weather Roundup
Issued by NWS Newport/Morehead, NC

Current Version | Previous Version | Graphics & Text | Print | Product List | Glossary Off
Versions: 1 2 3 4 5 6 7 8 9 10 11 12 13 14 15 16 17 18 19 20 21 22 23 24 25 26 27 28 29 30 31 32 33 34 35 36 37 38 39 40 41 42 43 44 45 46 47 48 49 50

000
ASUS42 KMHX 262025
RWRMHX
WEATHER ROUNDUP FOR EASTERN NORTH CAROLINA
NATIONAL WEATHER SERVICE NEWPORT/MOREHEAD CITY NC
400 PM EDT WED JUL 26 2017

NOTE: "FAIR" INDICATES FEW OR NO CLOUDS BELOW 12,000 FEET
WITH NO SIGNIFICANT WEATHER AND/OR OBSTRUCTIONS TO VISIBILITY

NCZ015>017-031-032-045>047-102-103-262100-
NORTH COAST

CITY           SKY/WX    TMP DP  RH WIND       PRES   REMARKS
EDENTON        SUNNY     83  69  62 SE3       30.14F
ELIZABETH CITY SUNNY     83  69  62 E8        30.14F
KITTY HAWK     CLEAR     79  65  62 CALM      30.14F
MANTEO         SUNNY     79  66  66 NE12      30.15F

$$

NCZ045>047-081-094-103-104-262100-
CENTRAL COAST

CITY           SKY/WX    TMP DP  RH WIND       PRES   REMARKS
FRISCO         CLOUDY    82  66  58 E12G17    30.14S

$$

NCZ095-097-098-100-101-262100-
SOUTHERN COAST

CITY           SKY/WX    TMP DP  RH WIND       PRES   REMARKS
BEAUFORT       PTSUNNY   85  73  67 NE10      30.12F
CEDAR ISLAND   NOT AVBL
JACKSONVILLE   MOSUNNY   86  64  47 E10       30.11F
PINEY ISLAND   PTCLDY   N/A N/A N/A E12       30.12F
WILMINGTON     MOSUNNY   85  68  56 E9        30.10F


$$

NCZ011>013-027>030-043-044-078>080-089-090>093-098-262100-
COASTAL PLAIN

CITY           SKY/WX    TMP DP  RH WIND       PRES   REMARKS
AHOSKIE          N/A     83  67  59 S5        30.13F
CLINTON        SUNNY     89  70  52 SE3       30.11F
ELIZABETHTOWN  NOT AVBL
GOLDSBORO      MOSUNNY   90  64  42 E6        30.10F
GREENVILLE     MOSUNNY   88  68  51 SE7       30.13F
HAVELOCK       CLOUDY    85  62  46 NE12      30.13F
KENANSVILLE    PTSUNNY   86  68  54 SE6       30.12F
KINSTON        PTSUNNY   86  66  51 NE7       30.13F
NEW BERN       MOSUNNY   86  68  54 E9        30.13F
RICHLANDS      CLOUDY    86  71  60 E7        30.12F
ROCKY MOUNT      N/A     85  68  56 CALM      30.13F
WASHINGTON     MOSUNNY   85  67  55 E6        30.13S
WHITEVILLE     CLOUDY    85  67  53 E8        30.10F

$$

AMZ130-135-150-152-154-156-158-170-250-252-270-ANZ085-086-088-633-658-670-262100-
MARINE OBSERVATIONS

STATION/POSITION TIME  TEMP    WIND        PRES    WAVE   SWELL
                       AIR SEA DIR/SP/G            HT/PER HT/PER
                 (UTC) (F)     (DEG/KT/KT) (MB)    (FT/S) (FT/S)
CHESAPEAKE LIGHT NOT AVBL
64 E VA BEACH    1950   75 78   60/ 10/ 10 1021.6    3/ 7   3/ 7
DUCK             2000   76 76   60/  8/  9 1020.6
2 E DUCK         2000      75                N/A     3/ 5
OREGON INLET     2000   78 75   40/  9/ 12 1020.6
13E OREGON INLT  1948      79                N/A     3/ 6   3/ 6
HATTERAS CG      2000   80 78   70/ 11/ 15 1020.3
DIAMOND BUOY     1950   80 83   30/ 12/ 12 1020.1    3/ 5   2/ 6
CAPE LOOKOUT     2000   79      40/ 13/ 15 1019.7
BEAUFORT LAB     2000   83 81   70/  6/ 11 1019.3
30 SE NEW RVR IN 2008   80 84   60/ 16/ 19 1019.6
30 SE NEW RVR IN 2013      83                N/A     4/ 4
27 SE WRIGHTSVLE 2008   81 82   80/ 16/ 21 1018.8
5 SE WRIGHTSVLE  2008   81 81   70/ 12/ 17 1019.2
225 S CAPE HAT   1950   80 83  140/  4/  6 1018.4    3/10   2/10
41 SE CHARLESTON 2010   79 82  340/  8/ 10 1018.5

$$




USA.gov is the U.S. government's official web portal to all federal, state and local government web resources and services.